Retour au catalogue

FENGYUN 1C DEB

ActifPO
NORAD 30174·DEBRIS·🇨🇳 China

Lancé May 10, 1999 depuis Taiyuan Satellite Launch Center

Loading…

Prochains Passages (prochaines 24 heures)

TLE

FraisSource: Space-Track

Époque: Sep 14, 2026, 11:49 UTC

1 30174U 99025UF  26257.49273847  .00043795  00000-0  29285-2 0  9992
2 30174  98.7753  83.5916 0012065 241.1958 146.8673 15.06751496 24861

Suivez FENGYUN 1C DEB en temps réel avec AllMySat

Download on the App Store